EHI
0 0 0 0 0 0 0 0 0 0 0 0 0 0 0 0 0 0 0 0 0 0 0 0 0 0 0 0 0 0 0 0 0 0 0 0 0 0 0 0 0 0 0 0
0 0 0 0 0 0 0 0 0 0 0 0 0 0 0 0 0 0 0 0 0 0 0 0 0 0 0 0 0 0 0 0 0 0 0 0 0 0 0 0 0 0 0 0
0 0 0 0 0 0 0 0 0 0 0 0 0 0 0 0 0 0 0 0 0 0 0 0 0 0 0 0 0 0 0 0 0 0 0 0 0 0 0 0 0 0 0 0
0 0 0 0 0 0 0 0 0 0 0 0 0 0 0 0 0 0 0 0 0 0 0 0 0 0 0 0 0 0 0 0 0 0 0 0 0 0 0 0 0 0 0 0
0 0 0 0 0 0 0 0 0 0 0 0 0 0 0 0 0 0 0 0 0 0 0 0 0 0 0 0 0 0 0 0 0 0 0 0 0 0 0 0 0 0 0 0
0 0 0 0 0 0 0 0 0 0 0 0 0 0 0 0 0 0 0 0 0 0 0 0 0 0 0 0 0 0 0 0 0 0 0 0 0 0 0 0 0 0 0 0
0 0 0 0 0 0 0 0 0 0 0 0 0 0 0 0 0 0 0 0 0 0 0 0 0 0 0 0 0 0 0 0 0 0 0 0 0 0 0 0 0 0 0 0
0 0 0 0 0 0 0 0 0 0 0 0 0 0 0 0 0 0 0 0 0 0 0 0 0 0 0 0 0 0 0 0 0 0 0 0 0 0 0 0 0 0 0 0
0 0 0 0 0 0 0 0 0 0 0 0 0 0 0 0 0 0 0 0 0 0 0 0 0 0 0 0 0 0 0 0 0 0 0 0 0 0 0 0 0 0 0 0
0 0 0 0 0 0 0 0 0 0 0 0 0 0 0 0 0 0 0 0 0 0 0 0 0 0 0 0 0 0 0 0 0 0 0 0 0 0 0 0 0 0 0 0
0 0 0 0 0 0 0 0 0 0 0 0 0 0 0 0 0 0 0 0 0 0 0 0 0 0 0 0 0 0 0 0 0 0 0 0 0 0 0 0 0 0 0 0
0 0 0 0 0 0 0 0 0 0 0 0 0 0 0 0 0 0 0 0 0 0 0 0 0 0 0 0 0 0 0 0 0 0 0 0 0 0 0 0 0 0 0 0
0 0 0 0 0 0 0 0 0 0 0 0 0 0 0 0 0 0 0 0 0 0 0 0 0 0 0 0 0 0 0 0 0 0 0 0 0 0 0 0 0 0 0 0
0 0 0 0 0 0 0 0 0 0 0 0 0 0 0 0 0 0 0 0 0 0 0 0 0 0 0 0 0 0 0 0 0 0 0 0 0 0 0 0 0 0 0 0
0 0 0 0 0 0 0 0 0 0 0 0 0 0 0 0 0 0 0 0 0 0 0 0 0 0 0 0 0 0 0 0 0 0 0 0 0 0 0 0 0 0 0 0
0 0 0 0 0 0 0 0 0 0 0 0 0 0 0 0 0 0 0 0 0 0 0 0 0 0 0 0 0 0 0 0 0 0 0 0 0 0 0 0 0 0 0 0
0 0 0 0 0 0 0 0 0 0 0 0 0 0 0 0 0 0 0 0 0 0 0 0 0 0 0 0 0 0 0 0 0 0 0 0 0 0 0 0 0 0 0 0
0 0 0 0 0 0 0 0 0 0 0 0 0 0 0 0 0 0 0 0 0 0 0 0 0 0 0 0 0 0 0 0 0 0 0 0 0 0 0 0 0 0 0 0
0 0 0 0 0 0 0 0 0 0 0 0 0 0 0 0 0 0 0 0 0 0 0 0 0 0 0 0 0 0 0 0 0 0 0 0 0 0 0 0 0 0 0 0
0 0 0 0 0 0 0 0 0 0 0 0 0 0 0 0 0 0 0 0 0 0 0 0 0 0 0 0 0 0 0 0 0 0 0 0 0 0 0 0 0 0 0 0
0 0 0 0 0 0 0 0 0 0 0 0 0 0 0 0 0 0 0 0 0 0 0 0 0 0 0 0 0 0 0 0 0 0 0 0 0 0 0 0 0 0 0 0
0 0 0 0 0 0 0 0 0 0 0 0 0 0 0 0 0 0 0 0 0 0 0 0 0 0 0 0 0 0 0 0 0 0 0 0 0 0 0 0 0 0 0 0
0 0 0 0 0 0 0 0 0 0 0 0 0 0 0 0 0 0 0 0 0 0 0 0 0 0 0 0 0 0 0 0 0 0 0 0 0 0 0 0 0 0 0 0
0 0 0 0 0 0 0 0 0 0 0 0 0 0 0 0 0 0 0 0 0 0 0 0 0 0 0 0 0 0 0 0 0 0 0 0 0 0 0 0 0 0 0 0
0 0 0 0 0 0 0 0 0 0 0 0 0 0 0 0 0 0 0 0 0 0 0 0 0 0 0 0 0 0 0 0 0 0 0 0 0 0 0 0 0 0 0 0
0 0 0 0 0 0 0 0 0 0 0 0 0 0 0 0 0 0 0 0 0 0 0 0 0 0 0 0 0 0 0 0 0 0 0 0 0 0 0 0 0 0 0 0
Wind_Speed
5 7 3 0 2 3 3 3 3 2 5 6 7 6 3 2 4 5 4 4 4 3 3 5 6 7 7 8 8 7 7 7 6 4 4 4 4 4 3 3 4 5 5 5
7 3 0 2 6 9 8 7 4 2 2 5 6 4 2 2 3 4 4 3 3 3 5 6 6 6 7 7 7 7 7 7 7 5 4 3 4 4 4 3 4 5 5 5
7 1 3 7 7 7 6 4 3 2 2 5 7 2 1 1 2 3 3 2 2 3 3 4 5 6 6 7 7 7 7 8 7 7 4 4 3 3 3 4 4 4 5 5
5 2 6 7 4 4 1 1 2 2 3 3 5 4 5 3 1 1 1 2 2 2 2 3 5 6 6 6 6 6 7 7 7 7 5 5 4 4 4 4 4 5 5 5
2 2 5 4 1 1 3 2 1 0 1 1 1 4 4 3 2 1 1 0 1 1 1 3 4 5 5 5 5 5 6 7 7 7 6 6 5 4 4 4 5 5 4 4
3 2 3 1 2 1 1 5 5 5 5 2 3 5 5 4 5 3 1 0 0 1 2 3 4 4 4 5 5 5 6 7 7 7 7 6 7 7 7 6 6 5 4 4
3 3 2 2 4 5 6 6 5 5 4 5 1 3 5 4 5 5 4 2 1 1 2 3 4 5 5 6 5 5 6 6 7 7 7 7 7 6 6 6 5 5 4 4
4 2 2 2 1 0 1 6 6 3 3 4 2 1 4 4 5 5 4 3 1 2 3 3 4 4 5 5 5 5 5 6 7 7 7 7 7 5 5 6 5 5 4 5
6 4 2 1 1 2 2 1 5 5 1 1 2 2 2 2 3 3 3 2 2 2 3 4 4 4 4 4 4 4 4 5 6 6 6 6 7 6 6 7 6 5 5 5
7 4 3 1 2 3 1 2 5 3 1 3 3 3 5 6 7 5 4 3 3 3 4 5 4 4 4 3 3 3 3 4 5 6 5 5 6 6 6 6 7 7 7 7
5 6 1 1 0 1 2 2 4 3 4 4 3 7 6 9 8 7 6 5 5 5 6 5 5 4 3 3 2 3 3 3 4 5 5 5 6 6 6 6 7 7 7 8
3 7 2 1 3 0 2 3 4 3 1 2 3 8 3 7 7 7 7 6 5 6 6 5 5 4 3 3 2 2 2 3 3 3 4 5 5 5 6 6 7 7 7 7
4 6 4 3 5 2 1 2 4 5 3 2 2 8 2 4 5 6 7 6 6 5 6 5 4 4 4 4 3 3 3 2 2 2 3 4 5 5 5 6 6 6 6 7
5 4 6 6 8 6 4 4 4 5 3 3 5 6 4 7 7 7 7 7 6 5 5 4 4 4 5 4 4 4 4 2 1 1 3 4 4 4 4 5 5 6 6 6
5 2 2 6 6 6 6 7 8 6 7 7 7 6 9 11 11 9 8 7 5 5 5 4 3 4 4 4 4 4 3 2 0 1 2 3 3 4 4 5 5 5 6 6
3 2 1 3 5 5 4 6 8 8 6 7 6 7 6 6 6 7 7 7 6 6 5 4 3 2 4 4 4 4 3 2 1 1 1 2 3 4 4 4 4 5 5 5
2 2 1 4 4 1 5 7 7 7 7 8 8 8 4 5 9 10 9 8 7 6 6 4 2 2 3 3 3 4 4 2 2 1 1 2 3 3 4 4 4 4 5 5
5 3 3 1 3 2 7 4 4 5 5 6 6 6 10 10 10 9 9 9 8 6 5 4 2 1 2 2 1 2 3 3 2 2 1 1 2 2 3 4 4 4 3 3
4 6 3 2 2 6 6 3 1 1 4 4 7 7 9 4 3 4 7 9 9 7 6 5 3 2 2 1 1 3 4 3 3 2 1 1 1 1 2 3 4 3 3 3
5 6 5 3 0 4 6 3 1 2 4 5 5 8 8 8 4 7 8 8 8 7 6 5 3 2 2 1 3 6 4 4 3 3 2 2 2 1 1 2 3 3 2 3
1 3 3 3 3 8 7 1 3 1 7 4 4 7 10 11 11 7 6 8 8 7 7 5 4 3 3 2 5 6 5 5 5 4 3 2 2 2 1 2 2 3 3 4
7 5 4 4 2 8 5 4 5 9 5 3 2 6 10 10 7 5 7 9 9 8 7 6 4 4 4 4 6 6 6 6 5 4 4 3 3 2 1 1 2 3 3 4
7 9 8 9 9 8 6 9 7 5 4 3 2 4 8 7 7 8 7 9 9 9 7 6 6 5 4 4 6 7 7 6 5 5 4 4 3 2 1 1 1 2 2 2
3 3 4 3 5 4 4 6 5 4 5 5 4 4 7 8 9 9 8 8 8 8 7 6 6 6 5 5 7 7 6 7 6 6 5 4 4 3 2 1 1 1 0 1
3 2 1 3 6 6 6 5 4 4 5 6 5 4 7 8 9 10 9 9 9 8 7 6 7 7 7 6 7 7 6 7 6 6 5 5 5 4 4 3 2 2 2 3
4 2 1 4 5 3 4 7 7 5 5 6 5 4 3 7 9 10 9 9 9 9 7 7 8 8 8 7 7 7 7 7 6 5 5 4 4 4 4 3 2 3 3 5
Wind_Direction
45 64 67 53 139 127 101 92 109 125 135 112 128 142 160 125 98 90 75 61 52 33 4 8 4 1 359 355 356 355 352 345 345 338 330 319 311 301 295 283 277 278 269 255
53 62 305 59 70 76 77 81 75 38 114 110 123 123 153 154 131 127 109 80 51 25 7 0 357 355 352 349 350 350 348 341 337 326 309 286 286 283 276 283 289 277 272 264
128 201 63 77 62 75 73 111 161 204 48 90 108 80 208 206 100 91 87 81 54 40 12 346 342 341 341 343 344 343 337 336 334 330 322 319 315 309 313 309 297 284 277 265
98 48 79 78 68 89 145 185 169 154 122 204 157 178 235 210 115 78 49 51 35 20 353 336 334 334 333 329 331 333 333 333 334 336 338 336 328 313 298 298 292 294 284 275
88 73 73 75 75 146 220 257 291 108 138 307 133 140 249 184 190 230 230 105 27 354 342 333 325 322 319 322 326 329 335 333 335 339 339 337 331 310 302 308 313 311 303 289
83 65 96 146 307 285 14 22 23 48 67 324 240 155 237 219 200 194 202 211 0 350 347 329 318 318 316 319 326 332 336 333 337 341 342 344 340 336 335 336 333 326 314 305
55 15 7 25 20 15 58 64 31 14 12 262 243 140 235 220 186 174 176 194 232 263 299 308 316 318 316 318 325 331 335 330 333 339 343 342 340 336 335 332 327 328 326 319
132 272 305 26 124 194 56 128 139 182 236 284 350 231 254 204 177 166 169 176 208 259 275 288 295 300 305 313 321 329 333 330 334 340 339 339 342 338 336 334 332 331 326 323
152 216 275 293 13 111 72 124 170 145 250 305 298 309 314 181 185 180 185 185 223 262 275 278 289 294 295 305 309 315 328 333 335 338 338 341 346 347 347 345 348 346 345 349
133 158 242 218 14 347 129 138 72 85 79 314 293 246 234 208 213 205 202 211 234 261 275 279 282 280 279 281 295 321 331 329 329 339 344 348 347 349 351 358 1 1 360 2
116 125 134 52 203 249 34 61 87 112 149 160 280 270 227 194 194 194 208 217 231 249 262 270 274 275 272 282 304 322 329 332 336 341 344 354 351 352 1 8 6 5 7 11
84 109 95 310 308 208 150 150 133 133 251 173 204 270 258 177 180 184 204 222 235 248 259 263 266 276 272 264 270 291 307 319 323 339 354 357 358 3 9 7 4 8 12 13
92 104 89 344 329 328 256 197 148 134 124 154 213 270 271 197 192 199 202 221 240 259 268 271 277 278 265 254 249 265 277 291 317 359 10 7 3 5 5 4 4 10 14 14
105 107 155 190 215 197 197 212 180 129 150 238 235 249 228 220 215 218 217 223 238 256 262 261 271 274 264 250 239 250 269 280 307 21 20 9 357 358 1 6 9 9 10 13
107 115 224 231 219 184 193 196 195 186 191 200 234 231 234 215 207 208 213 223 238 250 249 245 251 268 272 261 247 243 259 276 202 79 27 0 358 9 13 12 9 7 8 11
97 133 341 299 248 212 232 229 208 217 214 220 237 258 247 193 181 197 209 213 226 235 234 234 242 285 292 272 245 234 239 241 173 128 55 15 24 26 20 13 9 6 2 357
98 125 56 306 320 91 276 247 213 215 210 193 214 234 167 162 192 201 207 210 216 220 219 216 233 271 284 271 238 220 215 188 144 133 97 56 48 36 16 11 10 360 352 354
127 113 112 349 24 245 258 261 203 212 237 209 207 199 180 194 204 206 198 198 208 203 199 206 227 267 272 274 244 185 158 140 135 127 110 95 66 42 18 13 0 346 341 345
132 125 96 81 337 290 293 278 202 231 288 230 208 206 199 184 149 249 218 196 195 194 193 201 203 201 230 268 142 118 123 131 139 146 156 161 119 60 19 359 339 331 340 345
72 90 105 103 329 266 264 270 109 81 289 273 204 197 179 139 166 248 223 201 196 189 184 186 178 172 214 207 125 123 138 152 172 187 187 173 164 140 352 328 325 328 337 337
65 65 120 165 237 266 259 233 75 95 254 271 211 192 173 183 203 218 196 190 187 184 189 182 169 185 222 183 138 144 165 191 200 191 179 169 183 202 253 322 336 345 357 9
170 162 185 155 199 267 236 152 187 221 237 267 238 199 195 212 216 207 189 183 180 184 189 185 182 211 226 185 158 168 197 210 200 187 183 191 209 224 182 19 2 9 21 28
190 186 180 182 211 240 221 210 224 195 217 245 241 227 202 201 197 191 187 182 184 188 194 195 194 215 228 199 178 186 209 201 195 194 202 208 212 223 205 172 59 22 22 27
283 171 152 229 269 274 271 258 266 238 243 256 243 220 187 195 195 192 189 190 193 198 200 200 197 212 228 213 201 205 202 190 188 200 210 209 206 218 228 210 177 143 18 3
316 23 43 283 296 322 347 340 303 281 287 290 273 229 201 196 196 196 197 199 201 203 203 195 198 210 222 216 212 213 200 185 190 203 208 204 203 203 211 217 216 209 218 208
346 4 237 251 283 272 319 351 358 352 320 299 287 279 240 202 205 201 205 206 204 206 204 201 205 212 219 214 216 214 200 188 187 199 208 203 200 202 202 206 238 267 247 252